User: anonymous   Login
Location: Unspecified
(0.0000°N, 0.0000°E)
Time: 19:04:34
(UTC+00:00)
Language:

USA 223 - Orbit

View from above orbital plane
View from above orbital plane
View from above satellite
View from above satellite

Ground track
Ground track

The orbit data is extracted from the following two-line orbital elements,

1 37232U 10063A   17111.68459973 0.00000000  00000-0  00000-0 0    02
2 37232   3.0194 191.8191 0050110  95.3833 265.2083  1.00270000    00
Epoch (UTC): 21 April 2017 16:25:49
Eccentricity: 0.0050110
inclination: 3.0194°
perigee height: 35575 km
apogee height: 35998 km
right ascension of ascending node: 191.8191°
argument of perigee: 95.3833°
revolutions per day: 1.00270000
mean anomaly at epoch: 265.2083°
orbit number at epoch: 0

The dashed part of the orbit path shows where the satellite is in the earth's shadow,  

DLR